EN

Hourly Weather Dziembowko

Today, 28 October, Wednesday

Time Temperature Precipitation Wind Pressure Humidity
00:00 +7°C° 0 mm 4 mps 752 mmHg 79%
01:00 +7°C° 0 mm 4 mps 752 mmHg 79%
02:00 +7°C° 0 mm 4 mps 752 mmHg 80%
03:00 +7°C° 0 mm 4 mps 752 mmHg 80%
04:00 +6°C° 0 mm 4 mps 751 mmHg 81%
05:00 +6°C° 0 mm 4 mps 751 mmHg 79%
06:00 +6°C° 0 mm 5 mps 752 mmHg 78%
07:00 +7°C° 0 mm 5 mps 751 mmHg 74%
08:00 +7°C° 0 mm 5 mps 751 mmHg 71%
09:00 +8°C° 0 mm 6 mps 751 mmHg 67%
10:00 +9°C° 0 mm 6 mps 751 mmHg 63%
11:00 +9°C° 0.1 mm 5 mps 751 mmHg 66%
12:00 +9°C° 0.1 mm 5 mps 751 mmHg 70%
13:00 +8°C° 0 mm 4 mps 751 mmHg 78%
14:00 +8°C° 0 mm 4 mps 752 mmHg 79%
15:00 +10°C° 0 mm 4 mps 752 mmHg 80%
16:00 +10°C° 0 mm 4 mps 752 mmHg 81%
17:00 +9°C° 0 mm 3 mps 752 mmHg 83%
18:00 +9°C° 0 mm 3 mps 752 mmHg 85%
19:00 +9°C° 0 mm 3 mps 752 mmHg 87%
20:00 +8°C° 0 mm 3 mps 752 mmHg 88%
21:00 +8°C° 0 mm 3 mps 752 mmHg 89%
22:00 +8°C° 0 mm 3 mps 752 mmHg 90%
23:00 +8°C° 0 mm 3 mps 752 mmHg 91%

Tomorrow, 29 October, Thursday

Time Temperature Precipitation Wind Pressure Humidity
00:00 +8°C° 0 mm 3 mps 752 mmHg 93%
01:00 +7°C° 0 mm 3 mps 752 mmHg 94%
02:00 +7°C° 0 mm 3 mps 752 mmHg 94%
03:00 +7°C° 0 mm 3 mps 751 mmHg 94%
04:00 +7°C° 0 mm 3 mps 751 mmHg 94%
05:00 +8°C° 0 mm 3 mps 751 mmHg 92%
06:00 +7°C° 0 mm 4 mps 751 mmHg 89%
07:00 +7°C° 0 mm 4 mps 751 mmHg 87%
08:00 +8°C° 0.1 mm 4 mps 751 mmHg 86%
09:00 +8°C° 0.1 mm 5 mps 750 mmHg 84%
10:00 +9°C° 0.1 mm 5 mps 750 mmHg 83%
11:00 +9°C° 0.2 mm 5 mps 750 mmHg 79%
12:00 +10°C° 0.2 mm 6 mps 751 mmHg 74%
13:00 +11°C° 0.2 mm 6 mps 751 mmHg 70%
14:00 +10°C° 0.1 mm 6 mps 751 mmHg 70%
15:00 +9°C° 0.1 mm 6 mps 751 mmHg 70%
16:00 +9°C° 0.1 mm 5 mps 752 mmHg 71%
17:00 +9°C° 0.3 mm 6 mps 752 mmHg 72%
18:00 +8°C° 0.3 mm 6 mps 753 mmHg 73%
19:00 +8°C° 0.3 mm 7 mps 753 mmHg 74%
20:00 +8°C° 0.1 mm 7 mps 753 mmHg 76%
21:00 +8°C° 0.1 mm 7 mps 754 mmHg 78%
22:00 +8°C° 0.1 mm 7 mps 754 mmHg 79%
23:00 +7°C° 0 mm 6 mps 754 mmHg 82%

Day after tomorrow, 30 October, Friday

Time Temperature Precipitation Wind Pressure Humidity
00:00 +7°C° 0 mm 6 mps 754 mmHg 84%
01:00 +7°C° 0 mm 5 mps 755 mmHg 86%
02:00 +7°C° 0 mm 5 mps 755 mmHg 86%
03:00 +7°C° 0 mm 5 mps 755 mmHg 86%
04:00 +7°C° 0 mm 5 mps 756 mmHg 86%
05:00 +6°C° 0 mm 4 mps 756 mmHg 87%
06:00 +7°C° 0 mm 3 mps 756 mmHg 87%
07:00 +5°C° 0 mm 3 mps 756 mmHg 88%
08:00 +7°C° 0.2 mm 3 mps 756 mmHg 88%
09:00 +7°C° 0.2 mm 3 mps 756 mmHg 87%
10:00 +8°C° 0.2 mm 3 mps 755 mmHg 87%
11:00 +8°C° 0.6 mm 3 mps 755 mmHg 89%
12:00 +8°C° 0.6 mm 3 mps 755 mmHg 92%
13:00 +8°C° 0.6 mm 3 mps 754 mmHg 94%
14:00 +8°C° 1.2 mm 3 mps 754 mmHg 95%
15:00 +9°C° 1.2 mm 2 mps 754 mmHg 96%
16:00 +9°C° 1.2 mm 2 mps 754 mmHg 97%
17:00 +9°C° 1.4 mm 2 mps 754 mmHg 97%
18:00 +10°C° 1.4 mm 2 mps 754 mmHg 97%
19:00 +10°C° 1.4 mm 2 mps 754 mmHg 97%
20:00 +12°C° 0.6 mm 2 mps 755 mmHg 97%
21:00 +12°C° 0.6 mm 2 mps 755 mmHg 97%
22:00 +12°C° 0.6 mm 2 mps 755 mmHg 97%
23:00 +12°C° 0.4 mm 2 mps 756 mmHg 97%

31 October, Saturday

Time Temperature Precipitation Wind Pressure Humidity
00:00 +12°C° 0.4 mm 2 mps 756 mmHg 97%
01:00 +12°C° 0.4 mm 2 mps 756 mmHg 97%
02:00 +12°C° 0.2 mm 2 mps 757 mmHg 97%
03:00 +10°C° 0.2 mm 2 mps 757 mmHg 97%
04:00 +11°C° 0.2 mm 1 mps 758 mmHg 96%
05:00 +11°C° 0.1 mm 1 mps 758 mmHg 96%
06:00 +11°C° 0.1 mm 1 mps 758 mmHg 96%
07:00 +11°C° 0.1 mm 1 mps 759 mmHg 96%
08:00 +11°C° 0.3 mm 1 mps 759 mmHg 95%
09:00 +10°C° 0.3 mm 2 mps 759 mmHg 95%
10:00 +10°C° 0.3 mm 2 mps 759 mmHg 95%
11:00 +10°C° 0.1 mm 2 mps 760 mmHg 94%
12:00 +10°C° 0.1 mm 2 mps 760 mmHg 93%
13:00 +12°C° 0.1 mm 2 mps 760 mmHg 92%
14:00 +12°C° 0 mm 2 mps 760 mmHg 92%
15:00 +12°C° 0 mm 2 mps 760 mmHg 92%
16:00 +12°C° 0 mm 2 mps 760 mmHg 93%
17:00 +12°C° 0 mm 2 mps 760 mmHg 93%
18:00 +12°C° 0 mm 2 mps 760 mmHg 93%
19:00 +12°C° 0 mm 2 mps 760 mmHg 93%
20:00 +11°C° 0 mm 3 mps 760 mmHg 92%
21:00 +11°C° 0 mm 3 mps 760 mmHg 91%
22:00 +10°C° 0 mm 3 mps 760 mmHg 90%
23:00 +10°C° 0 mm 3 mps 760 mmHg 89%

1 November, Sunday

Time Temperature Precipitation Wind Pressure Humidity
00:00 +10°C° 0 mm 3 mps 760 mmHg 88%
01:00 +10°C° 0 mm 4 mps 760 mmHg 87%
02:00 +8°C° 0 mm 4 mps 759 mmHg 86%
03:00 +8°C° 0 mm 4 mps 759 mmHg 84%
04:00 +8°C° 0 mm 4 mps 759 mmHg 82%
05:00 +7°C° 0 mm 4 mps 759 mmHg 82%
06:00 +7°C° 0 mm 4 mps 759 mmHg 83%
07:00 +7°C° 0 mm 4 mps 758 mmHg 83%
08:00 +8°C° 0 mm 4 mps 758 mmHg 82%
09:00 +9°C° 0 mm 5 mps 758 mmHg 80%
10:00 +9°C° 0 mm 6 mps 758 mmHg 78%
11:00 +10°C° 0 mm 6 mps 757 mmHg 75%
12:00 +11°C° 0 mm 6 mps 757 mmHg 72%
13:00 +13°C° 0 mm 6 mps 756 mmHg 69%
14:00 +13°C° 0 mm 5 mps 756 mmHg 72%
15:00 +12°C° 0 mm 5 mps 756 mmHg 75%
16:00 +12°C° 0 mm 4 mps 755 mmHg 78%
17:00 +12°C° 0 mm 4 mps 755 mmHg 82%
18:00 +11°C° 0 mm 4 mps 755 mmHg 85%
19:00 +11°C° 0 mm 4 mps 755 mmHg 88%
20:00 +11°C° 0 mm 4 mps 755 mmHg 88%
21:00 +11°C° 0 mm 4 mps 755 mmHg 89%
22:00 +11°C° 0 mm 4 mps 755 mmHg 89%
23:00 +11°C° 0 mm 4 mps 755 mmHg 88%

2 November, Monday

Time Temperature Precipitation Wind Pressure Humidity
00:00 +12°C° 0 mm 4 mps 755 mmHg 87%
01:00 +12°C° 0 mm 4 mps 754 mmHg 86%
02:00 +12°C° 0 mm 4 mps 754 mmHg 87%
03:00 +12°C° 0 mm 3 mps 754 mmHg 88%
04:00 +12°C° 0 mm 3 mps 754 mmHg 90%
05:00 +12°C° 0 mm 3 mps 754 mmHg 90%
06:00 +12°C° 0 mm 3 mps 754 mmHg 90%
07:00 +12°C° 0 mm 4 mps 754 mmHg 90%
08:00 +12°C° 0 mm 4 mps 754 mmHg 86%
09:00 +13°C° 0 mm 4 mps 754 mmHg 83%
10:00 +14°C° 0 mm 4 mps 754 mmHg 79%
11:00 +15°C° 0 mm 4 mps 754 mmHg 77%
12:00 +17°C° 0 mm 4 mps 754 mmHg 75%
13:00 +17°C° 0 mm 4 mps 754 mmHg 74%
14:00 +17°C° 0 mm 4 mps 754 mmHg 76%
15:00 +16°C° 0 mm 3 mps 754 mmHg 79%
16:00 +16°C° 0 mm 3 mps 754 mmHg 82%
17:00 +14°C° 0 mm 3 mps 754 mmHg 84%
18:00 +14°C° 0 mm 3 mps 754 mmHg 86%
19:00 +13°C° 0 mm 3 mps 754 mmHg 88%
20:00 +13°C° 0 mm 3 mps 755 mmHg 89%
21:00 +13°C° 0 mm 3 mps 755 mmHg 90%
22:00 +13°C° 0 mm 3 mps 755 mmHg 91%
23:00 +12°C° 0 mm 3 mps 755 mmHg 90%
Show more